Location: Santa Barbara
(34.4500°N, 119.7700°W)
Time: 17:39:13
(UTC-08:00)

Cosmos 1892 Rocket - Visible Passes

Search period start: 06 March 2015 00:00
Search period end: 16 March 2015 01:00
Orbit: 608 x 634 km, 82.5° (Epoch: 06 March)

Date Brightness Start Highest point End Pass type
(mag) Time Alt. Az. Time Alt. Az. Time Alt. Az.
06 Mar 3.7 05:29:14 10° SSW 05:33:32 53° W 05:37:52 10° N visible
07 Mar 6.2 04:10:40 10° SE 04:13:49 20° E 04:17:06 10° NE visible
07 Mar 4.5 05:47:50 10° SW 05:51:35 27° WNW 05:55:19 10° NNW visible
08 Mar 4.9 05:27:32 10° SSE 05:31:37 39° E 05:35:47 10° NNE visible
09 Mar 3.6 05:45:05 10° S 05:49:29 83° E 05:53:56 10° N visible
10 Mar 6.7 04:28:40 10° ESE 04:29:55 11° E 04:31:27 10° ENE visible
10 Mar 3.8 06:03:11 10° SSW 06:07:26 47° W 06:11:44 10° N visible
11 Mar 5.9 04:44:46 12° SE 04:47:41 23° E 04:51:12 10° NE visible
11 Mar 4.7 06:22:03 11° SW 06:25:32 24° WNW 06:29:06 10° NNW visible
12 Mar 4.6 05:03:56 31° SE 05:05:29 45° E 05:09:45 10° NNE visible
12 Mar 5.4 06:41:45 10° W 06:43:46 12° WNW 06:45:32 10° NW visible
13 Mar 3.4 05:22:46 67° SSW 05:23:22 87° W 05:27:50 10° N visible
14 Mar 6.5 04:04:10 13° E 04:04:10 13° E 04:05:55 10° ENE visible
14 Mar 3.9 05:41:24 42° WNW 05:41:24 42° WNW 05:45:34 10° N visible
15 Mar 5.8 04:22:40 23° ENE 04:22:40 23° ENE 04:25:15 10° NNE visible
15 Mar 4.9 05:59:54 21° WNW 05:59:54 21° WNW 06:02:50 10° NNW visible
